OneWeb SL0509

operational
NORAD ID: 54127 Int'l Des: 2022-138 Owner: ONEWEBN Country: UK Constellation: oneweb
LEOCIRCULARPOLARONEWEB_TYPE

About OneWeb SL0509

Description loading...

Live Position

Loading 3D Globe...

Upcoming Passes

Altitude History

Altitude vs Time

uPlot chart will show altitude changes over time

Two-Line Element Set

1 54127U 22138Q 25354.46757883 .00000044 00000-0 78591-4 0 9994
2 54127 87.9216 340.5097 0001881 82.3958 277.7388 13.19725322153236
Epoch: Dec 20, 2025 • Age: 8 hours

Current Status

Altitude 1188.8 km
Velocity 7.26 km/s
Sub-Earth Point 0.20°N, 139.69°E
Launch Date Oct 22, 2022
Age 3.1 years
Type internet

Technical Details

Classification Payload
Mass 148.00 kg
Dry Mass 140.00 kg
Total Mass 148.00 kg
Length 1.30 m
Diameter 1.00 m
Span 5.00 m
Shape Trapezoid+2 pan
Manufacturer ONEWUS
Bus Type ARROW
Phase Status In Orbit
Owner/State ONEWEBN/UK

Large Constellations

Loading constellations...